Notices

What's New in latest Release from April 7th, 2021:

- Updated Glossary, including Speed of Maximum Gust, and Total Hourly Precipitation

- Updated national and regional climate services offices contacts and prices information

- Addition of station inventory lists for 1981-2010, 1971-2000, and 1961-1990 Normals.

If you haven't already, please take our survey and provide feedback about our website: https://eccc.sondage-survey.ca/f/LanguageSelection.aspx?s=442ca660-fcf1-47c0-95a9-59707d6fd709

Hourly Data Report for February 03, 2017

TORONTO CITY
ONTARIO

43°40'00.000" N
79°24'00.000" W
112.50 m
6158355
71508
XTO

Download Data

Hourly Data (February 2017)
Hourly Data Report for February 3, 2017
TIME
LST
Temp Definition
°C
Dew Point Definition
°C
Rel Hum Definition
%
Precip. Amount Definition
mm

Wind Dir Definition
10's deg

Wind Spd Definition
km/h
Visibility Definition
km
Stn Press Definition
kPa
Hmdx Definition


Wind Chill Definition


Weather Definition


00:00 -5.3 -12.3 58 0.0 LegendMM LegendMM   100.79     LegendNANA
01:00 -5.7 -12.9 57 0.0 LegendMM LegendMM   100.75     LegendNANA
02:00 -6.2 -12.9 59 0.0 LegendMM LegendMM   100.75     LegendNANA
03:00 -6.7 -13.6 58 0.0 LegendMM LegendMM   100.79     LegendNANA
04:00 -7.1 -13.0 63 0.0 LegendMM LegendMM   100.76     LegendNANA
05:00 -7.0 -13.1 62 0.0 LegendMM LegendMM   100.76     LegendNANA
06:00 -7.4 -13.1 64 0.0 LegendMM LegendMM   100.74     LegendNANA
07:00 -7.8 -12.8 67 0.0 LegendMM LegendMM   100.77     LegendNANA
08:00 -7.6 -12.2 70 0.0 LegendMM LegendMM   100.83     LegendNANA
09:00 -7.0 -12.2 67 0.0 LegendMM LegendMM   100.82     LegendNANA
10:00 -5.9 -11.5 65 0.0 LegendMM LegendMM   100.84     LegendNANA
11:00 -4.9 -12.7 54 0.0 LegendMM LegendMM   100.82     LegendNANA
12:00 -4.3 -13.5 49 0.0 LegendMM LegendMM   100.76     LegendNANA
13:00 -3.6 -13.6 46 0.0 LegendMM LegendMM   100.72     LegendNANA
14:00 -4.1 -13.4 48 0.0 LegendMM LegendMM   100.69     LegendNANA
15:00 -4.3 -13.5 49 0.0 LegendMM LegendMM   100.72     LegendNANA
16:00 -4.9 -12.8 54 0.0 LegendMM LegendMM   100.77     LegendNANA
17:00 -5.2 -11.7 60 0.0 LegendMM LegendMM   100.82     LegendNANA
18:00 -5.7 -13.5 54 0.0 LegendMM LegendMM   100.89     LegendNANA
19:00 -6.6 -11.7 67 0.0 LegendMM LegendMM   100.97     LegendNANA
20:00 -7.0 -11.8 69 0.0 LegendMM LegendMM   101.00     LegendNANA
21:00 -6.9 -11.5 70 0.0 LegendMM LegendMM   101.03     LegendNANA
22:00 -6.5 -11.3 69 0.0 LegendMM LegendMM   101.03     LegendNANA
23:00 -6.3 -11.4 67 0.0 LegendMM LegendMM   101.08     LegendNANA

Notes on Data Quality.

Legend

  • E = Estimated
  • M = Missing
  • NA = Not Available*
  • [empty] = Indicates an unobserved value
Date modified: